Hourly Weather Copacabana Municipality

Today, 12 May, Wednesday

Time Temperature Precipitation Wind Pressure Humidity
00:00 +3°C° 0 mm 2 mps 471 mmHg 90%
01:00 +2°C° 0 mm 2 mps 470 mmHg 92%
02:00 +2°C° 0 mm 2 mps 470 mmHg 92%
03:00 +2°C° 0 mm 2 mps 470 mmHg 91%
04:00 +1°C° 0 mm 2 mps 470 mmHg 91%
05:00 +2°C° 0 mm 2 mps 471 mmHg 89%
06:00 +3°C° 0 mm 2 mps 471 mmHg 86%
07:00 +4°C° 0 mm 2 mps 472 mmHg 84%
08:00 +6°C° 0 mm 2 mps 472 mmHg 76%
09:00 +7°C° 0 mm 2 mps 473 mmHg 67%
10:00 +9°C° 0 mm 2 mps 473 mmHg 59%
11:00 +10°C° 0 mm 2 mps 473 mmHg 57%
12:00 +10°C° 0 mm 3 mps 473 mmHg 54%
13:00 +11°C° 0 mm 3 mps 472 mmHg 51%
14:00 +10°C° 0 mm 4 mps 472 mmHg 52%
15:00 +10°C° 0 mm 4 mps 472 mmHg 53%
16:00 +9°C° 0 mm 5 mps 471 mmHg 54%
17:00 +7°C° 0 mm 4 mps 471 mmHg 64%
18:00 +6°C° 0 mm 4 mps 471 mmHg 75%
19:00 +4°C° 0 mm 4 mps 471 mmHg 86%
20:00 +4°C° 0 mm 4 mps 471 mmHg 87%
21:00 +3°C° 0 mm 3 mps 471 mmHg 89%
22:00 +4°C° 0 mm 2 mps 472 mmHg 91%
23:00 +4°C° 0.1 mm 2 mps 471 mmHg 92%

Tomorrow, 13 May, Thursday

Time Temperature Precipitation Wind Pressure Humidity
00:00 +2°C° 0.1 mm 3 mps 471 mmHg 93%
01:00 +2°C° 0.1 mm 3 mps 471 mmHg 94%
02:00 +3°C° 0 mm 2 mps 471 mmHg 92%
03:00 +4°C° 0 mm 2 mps 471 mmHg 90%
04:00 +5°C° 0 mm 1 mps 471 mmHg 88%
05:00 +5°C° 0 mm 1 mps 471 mmHg 85%
06:00 +6°C° 0 mm 1 mps 472 mmHg 82%
07:00 +5°C° 0 mm 2 mps 472 mmHg 79%
08:00 +7°C° 0 mm 2 mps 473 mmHg 71%
09:00 +8°C° 0 mm 2 mps 473 mmHg 64%
10:00 +10°C° 0 mm 2 mps 474 mmHg 56%
11:00 +10°C° 0 mm 3 mps 474 mmHg 53%
12:00 +11°C° 0 mm 3 mps 473 mmHg 49%
13:00 +12°C° 0 mm 4 mps 473 mmHg 45%
14:00 +11°C° 0 mm 3 mps 473 mmHg 45%
15:00 +12°C° 0 mm 2 mps 472 mmHg 45%
16:00 +12°C° 0 mm 1 mps 472 mmHg 46%
17:00 +10°C° 0.1 mm 1 mps 472 mmHg 52%
18:00 +7°C° 0.1 mm 2 mps 472 mmHg 58%
19:00 +6°C° 0.1 mm 2 mps 472 mmHg 65%
20:00 +6°C° 0 mm 2 mps 472 mmHg 66%
21:00 +5°C° 0 mm 3 mps 472 mmHg 67%
22:00 +4°C° 0 mm 3 mps 472 mmHg 68%
23:00 +4°C° 0 mm 3 mps 472 mmHg 69%

Day after tomorrow, 14 May, Friday

Time Temperature Precipitation Wind Pressure Humidity
00:00 +3°C° 0 mm 3 mps 472 mmHg 71%
01:00 +3°C° 0 mm 3 mps 472 mmHg 72%
02:00 +2°C° 0 mm 3 mps 471 mmHg 72%
03:00 +2°C° 0 mm 3 mps 471 mmHg 72%
04:00 +1°C° 0 mm 3 mps 471 mmHg 72%
05:00 +3°C° 0 mm 2 mps 471 mmHg 70%
06:00 +4°C° 0 mm 2 mps 472 mmHg 67%
07:00 +4°C° 0 mm 2 mps 472 mmHg 65%
08:00 +6°C° 0 mm 2 mps 473 mmHg 58%
09:00 +8°C° 0 mm 2 mps 473 mmHg 51%
10:00 +9°C° 0 mm 2 mps 474 mmHg 43%
11:00 +10°C° 0 mm 2 mps 473 mmHg 42%
12:00 +12°C° 0 mm 2 mps 473 mmHg 40%
13:00 +13°C° 0 mm 2 mps 473 mmHg 38%
14:00 +12°C° 0 mm 2 mps 472 mmHg 41%
15:00 +11°C° 0 mm 3 mps 472 mmHg 44%
16:00 +10°C° 0 mm 4 mps 471 mmHg 47%
17:00 +7°C° 0.2 mm 4 mps 471 mmHg 59%
18:00 +5°C° 0.2 mm 5 mps 471 mmHg 70%
19:00 +2°C° 0.2 mm 5 mps 472 mmHg 82%
20:00 +4°C° 0.2 mm 4 mps 472 mmHg 80%
21:00 +4°C° 0.2 mm 3 mps 472 mmHg 77%
22:00 +5°C° 0.2 mm 2 mps 473 mmHg 75%
23:00 +4°C° 0 mm 3 mps 472 mmHg 79%

15 May, Saturday

Time Temperature Precipitation Wind Pressure Humidity
00:00 +4°C° 0 mm 3 mps 472 mmHg 82%
01:00 +3°C° 0 mm 3 mps 472 mmHg 86%
02:00 +3°C° 0 mm 3 mps 472 mmHg 87%
03:00 +4°C° 0 mm 2 mps 471 mmHg 88%
04:00 +3°C° 0 mm 2 mps 471 mmHg 89%
05:00 +5°C° 0 mm 1 mps 472 mmHg 86%
06:00 +5°C° 0 mm 1 mps 472 mmHg 83%
07:00 +6°C° 0 mm 1 mps 472 mmHg 80%
08:00 +6°C° 0 mm 2 mps 473 mmHg 72%
09:00 +8°C° 0 mm 2 mps 473 mmHg 64%
10:00 +9°C° 0 mm 3 mps 474 mmHg 56%
11:00 +10°C° 0 mm 3 mps 473 mmHg 53%
12:00 +10°C° 0 mm 3 mps 473 mmHg 50%
13:00 +11°C° 0 mm 3 mps 472 mmHg 47%
14:00 +11°C° 0.1 mm 3 mps 472 mmHg 46%
15:00 +10°C° 0.1 mm 3 mps 472 mmHg 45%
16:00 +10°C° 0.1 mm 3 mps 472 mmHg 44%
17:00 +8°C° 0.1 mm 3 mps 472 mmHg 52%
18:00 +7°C° 0.1 mm 2 mps 472 mmHg 60%
19:00 +5°C° 0.1 mm 2 mps 472 mmHg 68%
20:00 +5°C° 0.1 mm 2 mps 472 mmHg 67%
21:00 +5°C° 0.1 mm 2 mps 472 mmHg 67%
22:00 +4°C° 0.1 mm 2 mps 472 mmHg 67%
23:00 +4°C° 0 mm 2 mps 472 mmHg 64%

16 May, Sunday

Time Temperature Precipitation Wind Pressure Humidity
00:00 +4°C° 0 mm 1 mps 472 mmHg 60%
01:00 +3°C° 0 mm 1 mps 471 mmHg 57%
02:00 +3°C° 0 mm 1 mps 471 mmHg 58%
03:00 +3°C° 0 mm 1 mps 471 mmHg 60%
04:00 +2°C° 0 mm 1 mps 471 mmHg 61%
05:00 +3°C° 0 mm 1 mps 471 mmHg 58%
06:00 +4°C° 0 mm 1 mps 472 mmHg 56%
07:00 +5°C° 0 mm 1 mps 472 mmHg 53%
08:00 +7°C° 0 mm 1 mps 473 mmHg 47%
09:00 +8°C° 0 mm 1 mps 474 mmHg 42%
10:00 +10°C° 0 mm 1 mps 474 mmHg 36%
11:00 +11°C° 0 mm 1 mps 474 mmHg 34%
12:00 +11°C° 0 mm 1 mps 474 mmHg 33%
13:00 +12°C° 0 mm 2 mps 473 mmHg 31%
14:00 +12°C° 0 mm 2 mps 473 mmHg 32%
15:00 +10°C° 0 mm 3 mps 473 mmHg 32%
16:00 +10°C° 0 mm 3 mps 473 mmHg 33%
17:00 +8°C° 0 mm 3 mps 472 mmHg 44%
18:00 +7°C° 0 mm 3 mps 472 mmHg 55%
19:00 +4°C° 0 mm 3 mps 472 mmHg 66%
20:00 +5°C° 0 mm 2 mps 472 mmHg 69%
21:00 +4°C° 0 mm 2 mps 472 mmHg 72%
22:00 +4°C° 0 mm 1 mps 472 mmHg 75%
23:00 +4°C° 0 mm 1 mps 472 mmHg 76%

17 May, Monday

Time Temperature Precipitation Wind Pressure Humidity
00:00 +3°C° 0 mm 1 mps 472 mmHg 77%
01:00 +3°C° 0 mm 1 mps 471 mmHg 77%
02:00 +2°C° 0 mm 1 mps 471 mmHg 78%
03:00 +2°C° 0 mm 1 mps 471 mmHg 78%
04:00 0°C° 0 mm 0 mps 471 mmHg 78%
05:00 +2°C° 0 mm 0 mps 471 mmHg 73%
06:00 +4°C° 0 mm 1 mps 472 mmHg 68%
07:00 +5°C° 0 mm 1 mps 473 mmHg 63%
08:00 +7°C° 0 mm 1 mps 474 mmHg 56%
09:00 +9°C° 0 mm 1 mps 474 mmHg 49%
10:00 +10°C° 0 mm 1 mps 475 mmHg 42%
11:00 +11°C° 0 mm 1 mps 474 mmHg 38%
12:00 +10°C° 0 mm 2 mps 474 mmHg 34%
13:00 +12°C° 0 mm 2 mps 474 mmHg 29%
14:00 +12°C° 0 mm 2 mps 474 mmHg 29%
15:00 +11°C° 0 mm 3 mps 473 mmHg 28%
16:00 +11°C° 0 mm 3 mps 473 mmHg 27%
17:00 +9°C° 0 mm 3 mps 473 mmHg 43%
18:00 +5°C° 0 mm 4 mps 473 mmHg 59%
19:00 +3°C° 0 mm 4 mps 472 mmHg 75%
20:00 +3°C° 0 mm 3 mps 472 mmHg 79%
21:00 +2°C° 0 mm 3 mps 472 mmHg 82%
22:00 +2°C° 0 mm 2 mps 472 mmHg 86%
23:00 +2°C° 0 mm 2 mps 472 mmHg 86%
Show more

We Need Your Consent

Meteoprog and our Service Providers may store and access personal data such as cookies, device identifiers or other similar technologies on your device and process such data to personalise content and ads, as well as provide social media features and to analyse the traffic.

  • Store and/or access information on your device

    Cookies, device identifiers or other information can be stored or accessed on your device for the purposes indicated above.

  • Personalised ads and content, ad and content measurement, audience insights, and products development

    Ads and content can be personalised based on a profile. More data can be added to better personalise ads and content. Ad and content performance can be measured. Insights about the audience who saw the ads and content can be derived. Such data can be used to develop or improve user’s experience, systems and software.

By clicking ‘I Agree’ you will allow the use of indicated cookies, device identifiers, web beacons or other similar technologies. Your settings can be changed in the browser on your device.

For certain purposes, legitimate interests may be relied on, rather than consent. You can read more about this in our Privacy and Cookie Policy.